Lexington Weather

Lexington, Massachusetts, USA

59°F
11/30/2020 6:19pm 
  • Lexington Conditions: Light rain, Mist, Overcast
  • Temperature: 59.2°F / 15.1°C 
  • Dew Point: 57.4°F 
  • Relative Humidity: 94
  • Wind: Wind from SW SW 6 mph, 10-min avg: 7 mph, gust: 18 mph
  • Barometer: 29.56 in Steady
  • Visibility: 4 miles
  • Rain Today: 0.56 in
  •   
Southeast Middlesex County - Wind Advisory - Special Weather Statement
 - SEE ALL NEARBY ALERTS -

Regional Weather Roundup
for Boston / Norton, MA

        
000
ASUS41 KBOX 260404
RWRBOX

REGIONAL WEATHER ROUNDUP
NATIONAL WEATHER SERVICE BOSTON/NORTON MA
1100 PM EST WED NOV 25 2020

NOTE:  "FAIR" INDICATES FEW OR NO CLOUDS BELOW 12,000 FEET WITH NO 
SIGNIFICANT WEATHER AND/OR OBSTRUCTIONS TO VISIBILITY.

MAZALL-260500-
EASTERN MASSACHUSETTS
  
CITY           SKY/WX    TMP DP  RH WIND       PRES   REMARKS
BOSTON         CLOUDY    41  34  76 N5        30.24S                  
BEVERLY        CLOUDY    39  32  76 CALM      30.23S                  
LAWRENCE       CLOUDY    37  31  78 CALM      30.25F                  
BEDFORD        CLOUDY    37  31  78 CALM      30.22F                  
BLUE HILL        N/A     48  44  86 SW6       30.20F                  
NORWOOD        CLOUDY    43  38  82 CALM      30.23F                  
MARSHFIELD     CLOUDY    48  48 100 CALM      30.23S FOG              
PLYMOUTH       CLOUDY    50  48  93 SW6       30.23S                  
TAUNTON        CLOUDY    52  47  83 CALM      30.23S                  
NEW BEDFORD    CLOUDY    50  48  93 SW3       30.23F                  
$$

MAZALL-260500-
CAPE COD AND THE ISLANDS
  
CITY           SKY/WX    TMP DP  RH WIND       PRES   REMARKS
FALMOUTH       CLOUDY    50  50 100 SW7       30.24F                  
HYANNIS        PTCLDY    51  50  96 S5        30.23S                  
CHATHAM        CLEAR     51  48  89 SW6       30.25F                  
PROVINCETOWN   PTCLDY    51  50  96 SW8       30.24S                  
NANTUCKET      CLEAR     53  50  89 SW7       30.26S                  
MARTHAS VNYRD  CLEAR     52  49  89 SW5       30.25S                  
$$
 
MAZALL-260500-
CENTRAL AND WESTERN MASSACHUSETTS
  
CITY           SKY/WX    TMP DP  RH WIND       PRES   REMARKS
WORCESTER      CLOUDY    46  40  79 SW9       30.19F                  
FITCHBURG      CLOUDY    36  29  75 CALM      30.22F                  
ORANGE         CLOUDY    39  38  96 CALM      30.20F                  
SPRINGFIELD    CLOUDY    38  37  94 CALM      30.20F                  
WESTFIELD      CLOUDY    39  34  82 CALM      30.20F                  
NORTH ADAMS    CLOUDY    43  40  89 E6        30.17F                  
PITTSFIELD     LGT RAIN  41  39  93 CALM      30.15F                  
$$
 
RIZALL-260500-
RHODE ISLAND
  
CITY           SKY/WX    TMP DP  RH WIND       PRES   REMARKS
PROVIDENCE     CLOUDY    49  46  90 CALM      30.23F                  
NEWPORT        CLOUDY    51  47  86 CALM      30.23F                  
BLOCK ISLAND   CLOUDY    51  47  86 SW7       30.24F                  
SMITHFIELD     CLOUDY    48  47  96 VRB3      30.22F                  
WESTERLY       CLOUDY    52  46  80 SW6       30.22F                  
$$
 
CTZALL-260500-
CONNECTICUT
  
CITY           SKY/WX    TMP DP  RH WIND       PRES   REMARKS
BRADLEY INTL   CLOUDY    40  35  83 CALM      30.21F                  
HARTFORD       CLOUDY    43  37  79 CALM      30.20F                  
BRIDGEPORT     LGT RAIN  52  46  80 S6        30.20F                  
DANBURY        LGT RAIN  45  40  82 CALM      30.20S                  
GROTON         CLOUDY    52  47  83 SW8       30.22F                  
NEW HAVEN      CLOUDY    52  48  86 S5        30.20F                  
CHESTER        MOCLDY    50  48  93 S5        30.21F                  
MERIDEN        CLOUDY    43  40  89 CALM      30.20F                  
WILLIMANTIC    CLOUDY    43  42  97 CALM      30.21F                  
OXFORD         CLOUDY    48  42  80 S6        30.19F                  
$$

MEZ002-015-021-024-NHZ003-005-008-011-012-014-VTZ005-008-260500-
NORTHERN NEW ENGLAND
  
CITY           SKY/WX    TMP DP  RH WIND       PRES   REMARKS
PORTLAND ME    CLOUDY    32  28  85 CALM      30.23S                  
BANGOR ME      FOG       30  29  96 E3        30.24F VSB 3/4          
CONCORD NH     MIX PCPN  32  28  85 CALM      30.23S                  
MANCHESTER NH  LGT RAIN  34  28  79 N3        30.21F                  
NASHUA NH      CLOUDY    34  32  92 CALM      30.23F                  
PORTSMOUTH NH  NOT AVBL                                               
JAFFREY NH     CLOUDY    36  34  92 CALM      30.18F                  
KEENE NH       LGT RAIN  34  32  92 CALM      30.21F                  
BURLINGTON VT  LGT RAIN  44  36  73 S10G21    30.14F                  
MT. WASHINGTON NOT AVBL                                               
$$

NYZ052-076-260500-
EASTERN NEW YORK
  
CITY           SKY/WX    TMP DP  RH WIND       PRES   REMARKS
ALBANY         LGT RAIN  41  41 100 CALM      30.15F                  
NEW YORK CITY  CLOUDY    55  43  63 S5        30.17F                  
$$
 
ANZALL-260500-
MARINE OBSERVATIONS
  
STATION/POSITION TIME  TEMP    WIND        PRES    VSBY  WAVE
                       AIR SEA DIR/SP/G                  HT/PER
                 (UTC) (F)     (DEG/KT/KT) (MB)    (MI)  (FT/S)
BOSTON BUOY      0340   46 50  360/  2/  4 1024.2R
BUZZARDS BAY     0300          240/ 15/ 17 1025.1S
NANTUCKET SOUND  0340      51  230/  8/ 10   N/A
MASS BAY-STELLWA NOT AVBL
ISLE OF SHOALS   0300   38     300/  2/  2 1023.4F
S OF BLOCK IS    0326      57                N/A           5/ 6
$$

......................KEY.........................
  SKY/WX - SKY CONDITION/PRESENT WEATHER
  TMP    - TEMPERATURE IN FAHRENHEIT
  DWPT   - DEWPOINT IN FAHRENHEIT
  RH     - RELATIVE HUMIDITY IN PERCENT
  WIND   - DIRECTION AND SPEED IN MPH
  PRES   - MEAN SEA LEVEL PRESSURE IN INCHES OF HG
  WCI    - WIND CHILL INDEX
  VSB    - VISIBILITY IN MILES
  HX     - HEAT INDEX
  TC     - TEMPERATURE IN CELSIUS
  VRB    - VARIABLE WIND DIRECTION
  N/A    - NOT AVAILABLE
  
      

Other recent Regional Weather Roundups

Mon Nov 30, 6:04pm

Mon Nov 30, 5:05pm

Mon Nov 30, 4:04pm

Mon Nov 30, 3:05pm

Mon Nov 30, 2:05pm

Mon Nov 30, 1:04pm

Mon Nov 30, 12:05pm

Mon Nov 30, 11:04am

Mon Nov 30, 10:04am

Mon Nov 30, 9:04am

Mon Nov 30, 8:04am

Mon Nov 30, 7:05am

Mon Nov 30, 6:04am

Mon Nov 30, 5:05am

Mon Nov 30, 4:04am

Mon Nov 30, 3:04am

Mon Nov 30, 2:04am

Mon Nov 30, 1:04am

Mon Nov 30, 12:04am

Sun Nov 29, 11:04pm

Sun Nov 29, 10:04pm

Sun Nov 29, 9:04pm

Sun Nov 29, 8:04pm

Sun Nov 29, 7:04pm

Sun Nov 29, 6:04pm

Sun Nov 29, 5:04pm

Sun Nov 29, 4:05pm

Sun Nov 29, 3:04pm

Sun Nov 29, 2:04pm

Sun Nov 29, 1:04pm

Sun Nov 29, 12:04pm

Sun Nov 29, 11:04am

Sun Nov 29, 10:04am

Sun Nov 29, 9:04am

Sun Nov 29, 8:05am

Sun Nov 29, 7:04am

Sun Nov 29, 6:04am

Sun Nov 29, 5:04am

Sun Nov 29, 4:04am

Sun Nov 29, 3:04am

Sun Nov 29, 2:05am

Sun Nov 29, 1:04am

Sun Nov 29, 12:04am

Sat Nov 28, 11:04pm

Sat Nov 28, 10:04pm

Sat Nov 28, 9:04pm

Sat Nov 28, 8:04pm

Sat Nov 28, 7:04pm

Sat Nov 28, 6:04pm

Sat Nov 28, 5:04pm

Sat Nov 28, 4:04pm

Sat Nov 28, 3:04pm

Sat Nov 28, 2:04pm

Sat Nov 28, 1:04pm

Sat Nov 28, 12:04pm

Sat Nov 28, 11:04am

Sat Nov 28, 10:04am

Sat Nov 28, 9:04am

Sat Nov 28, 8:04am

Sat Nov 28, 7:04am

Sat Nov 28, 6:04am

Sat Nov 28, 5:04am

Sat Nov 28, 4:04am

Sat Nov 28, 3:05am

Sat Nov 28, 2:04am

Sat Nov 28, 1:04am

Sat Nov 28, 12:04am

Fri Nov 27, 11:05pm

Fri Nov 27, 10:04pm

Fri Nov 27, 9:04pm

Fri Nov 27, 8:04pm

Fri Nov 27, 7:04pm

Fri Nov 27, 6:04pm

Fri Nov 27, 5:04pm

Fri Nov 27, 4:05pm

Fri Nov 27, 3:05pm

Fri Nov 27, 2:05pm

Fri Nov 27, 1:04pm

Fri Nov 27, 12:04pm

Fri Nov 27, 11:04am

Fri Nov 27, 10:04am

Fri Nov 27, 9:05am

Fri Nov 27, 8:04am

Fri Nov 27, 7:04am

Fri Nov 27, 6:04am

Fri Nov 27, 5:04am

Fri Nov 27, 4:04am

Fri Nov 27, 3:04am

Fri Nov 27, 2:04am

Fri Nov 27, 1:04am

Fri Nov 27, 12:04am

Thu Nov 26, 11:04pm

Thu Nov 26, 10:04pm

Thu Nov 26, 9:04pm

Thu Nov 26, 8:04pm

Thu Nov 26, 7:04pm

Thu Nov 26, 6:04pm

Thu Nov 26, 5:04pm

Thu Nov 26, 4:04pm

Thu Nov 26, 2:04pm

Thu Nov 26, 1:04pm

Thu Nov 26, 12:04pm

Thu Nov 26, 11:04am

Thu Nov 26, 10:04am

Thu Nov 26, 9:04am

Thu Nov 26, 8:04am

Thu Nov 26, 7:04am

Thu Nov 26, 6:04am

Thu Nov 26, 5:04am

Thu Nov 26, 4:04am

Thu Nov 26, 3:04am

Thu Nov 26, 2:04am

Thu Nov 26, 1:04am

Thu Nov 26, 12:04am

Wed Nov 25, 10:04pm

Wed Nov 25, 9:04pm

Wed Nov 25, 8:04pm

Wed Nov 25, 7:04pm

Wed Nov 25, 6:04pm

Wed Nov 25, 5:04pm

Wed Nov 25, 4:04pm

Wed Nov 25, 3:05pm

Wed Nov 25, 2:04pm

Wed Nov 25, 1:04pm

Wed Nov 25, 12:05pm

Wed Nov 25, 11:04am

Wed Nov 25, 10:04am

Wed Nov 25, 9:04am

Wed Nov 25, 8:04am

Wed Nov 25, 7:04am

Wed Nov 25, 6:04am

Wed Nov 25, 5:04am

Wed Nov 25, 4:04am

Wed Nov 25, 3:04am

Wed Nov 25, 2:04am

Wed Nov 25, 1:04am

Wed Nov 25, 12:04am

Tue Nov 24, 11:04pm

Tue Nov 24, 10:04pm

Tue Nov 24, 9:04pm

Tue Nov 24, 8:04pm

Tue Nov 24, 7:04pm

Tue Nov 24, 6:04pm

Tue Nov 24, 5:04pm

Tue Nov 24, 4:05pm

Tue Nov 24, 3:05pm

Tue Nov 24, 2:05pm

Tue Nov 24, 1:05pm

Tue Nov 24, 12:04pm

Tue Nov 24, 11:04am

Tue Nov 24, 10:04am

Tue Nov 24, 9:04am

Tue Nov 24, 8:04am

Tue Nov 24, 7:04am

Tue Nov 24, 6:04am

Tue Nov 24, 5:04am

Tue Nov 24, 4:05am

Tue Nov 24, 3:04am

Tue Nov 24, 2:04am

Tue Nov 24, 1:04am

Tue Nov 24, 12:05am

Mon Nov 23, 11:04pm

Mon Nov 23, 10:04pm

Mon Nov 23, 9:04pm

Mon Nov 23, 8:04pm

Mon Nov 23, 7:04pm

Meta data:

ID: d3bd2014-6da5-4581-859e-a5c6c5cb40f8
Link: https://api.weather.gov/products/d3bd2014-6da5-4581-859e-a5c6c5cb40f8